Regional Weather Roundup
Issued by NWS Sioux Falls, SD

Home | Current Version | Previous Version | Graphics & Text | Print | Product List | Glossary On
Versions: 1 2 3 4 5 6 7 8 9 10 11 12 13 14 15 16 17 18 19 20 21 22 23 24 25 26 27 28 29 30 31 32 33 34 35 36 37 38 39 40 41 42 43 44 45 46 47 48 49 50
000
ASUS43 KFSD 201210
RWRFSD

WEATHER ROUNDUP FOR SE SOUTH DAKOTA/SW MINNESOTA/NW IOWA
NATIONAL WEATHER SERVICE SIOUX FALLS SD
700 AM CDT MON OCT 20 2014

NOTE: "FAIR" INDICATES FEW OR NO CLOUDS BELOW 12,000 FEET WITH NO
SIGNIFICANT WEATHER AND OR OBSTRUCTIONS TO VISIBILITY.


SDZ038>040-050-052>070-201300-
SOUTHEAST SOUTH DAKOTA

CITY           SKY/WX    TMP DP  RH WIND       PRES   REMARKS
CHAMBERLAIN    PTCLDY    34  32  91 W3        30.09R
6HR MIN TEMP:  33; 6HR MAX TEMP:  46;

HURON          CLEAR     34  31  88 CALM      30.07S
6HR MIN TEMP:  32; 6HR MAX TEMP:  39;

MADISON        FAIR      37  36  93 NW8       30.06R
MITCHELL       CLEAR     38  35  89 W5        30.09R
6HR MIN TEMP:  35; 6HR MAX TEMP:  47;

SIOUX FALLS    CLEAR     37  35  92 CALM      30.06R
6HR MIN TEMP:  35; 6HR MAX TEMP:  47;

WINNER         FAIR      46  36  68 SW5       30.09R
YANKTON        CLEAR     39  36  87 NW10      30.08R
$$

MNZ071-072-080-081-089-090-097-098-201300-
SOUTHWEST MINNESOTA

CITY           SKY/WX    TMP DP  RH WIND       PRES   REMARKS
FAIRMONT       CLEAR     45  36  70 NW8       30.00R
JACKSON        CLEAR     39  36  87 W5        30.01R
LUVERNE        CLEAR     39  36  87 CALM      30.05R
MARSHALL       CLEAR     43  34  70 NW10      30.02R
6HR MIN TEMP:  41; 6HR MAX TEMP:  45;

MONTEVIDEO     CLEAR     41  37  87 NW7       30.03R
PIPESTONE      CLEAR     43  37  81 N7        30.04R
REDWOOD FALLS  CLEAR     41  37  86 W8        30.00R
TRACY          CLEAR     46  38  74 W6        30.03R
WINDOM         CLEAR     37  36  93 W8        30.02R
WORTHINGTON    CLEAR     41  36  81 W8        30.04R
$$

IAZ001>003-012>014-020>022-031-032-NEZ013-014-SDZ071-201300-
NORTHWEST IOWA

CITY           SKY/WX    TMP DP  RH WIND       PRES   REMARKS
CHEROKEE       CLEAR     34  34 100 CALM      30.04R
DENISON        CLEAR     39  39 100 CALM      30.02R
ESTHERVILLE    CLEAR     40  36  86 NW8       30.01R
LE MARS        CLEAR     34  34 100 CALM      30.06R
ORANGE CITY    CLEAR     39  36  87 NW5       30.05R
SHELDON        CLEAR     36  36 100 NW7       30.03R
SIOUX CITY     CLEAR     39  37  92 NW5       30.06R
6HR MIN TEMP:  38; 6HR MAX TEMP:  48;

SPENCER        CLEAR     35  33  92 W6        30.03R
6HR MIN TEMP:  34; 6HR MAX TEMP:  47;

STORM LAKE     CLEAR     45  37  76 NW7       30.04R
$$

ABBREVIATIONS USED IN REMARKS
   TC - TEMPERATURE IN CELSIUS
  WCI - WIND CHILL INDEX
   HX - HEAT INDEX
  VSB - VISIBILITY




USA.gov is the U.S. government's official web portal to all federal, state and local government web resources and services.